Dewpoint
54 40 41 47 61 51 39 33 29 38 34 15 14 15 13 18 18 18 13 11 12 14 15 23 32 35 41 40 41 42 42 44 46 48 54 64 61 52 44 68 68 67 67 68 70 71 71 72 72 72 72 72 72 73 73 73 73 73 73 73 73 73 73 73 73 73 73 73 73 72 72 71 71 71 70 70 70 69 69 68 68 68 68 68 69 69 69 69 69 68 69 69 69 68 68 68 68
42 40 41 41 36 28 23 24 26 16 15 13 12 13 16 15 17 16 14 12 10 9 14 14 26 26 37 37 43 44 45 49 51 57 59 58 59 51 52 68 67 67 68 68 68 68 69 71 72 72 72 72 72 73 73 73 73 73 73 73 73 73 73 73 73 73 73 73 73 72 72 71 71 70 70 69 69 69 67 66 66 67 68 67 68 69 69 69 69 69 69 69 69 69 68 68 68
44 42 39 36 26 21 20 19 14 16 14 13 13 11 16 15 16 15 14 12 9 11 11 12 19 26 29 41 36 40 45 50 53 56 59 60 59 60 54 67 67 68 68 67 66 67 69 71 72 72 72 72 72 73 73 73 73 73 73 73 73 73 73 73 73 73 73 73 72 72 72 71 71 70 70 70 69 68 68 68 67 67 66 66 68 69 69 69 69 69 68 69 69 69 69 69 69
50 45 43 33 22 20 19 16 16 13 13 13 14 14 13 15 16 16 15 11 10 11 10 10 13 26 28 32 40 44 48 51 52 58 57 60 60 57 55 65 69 68 67 66 66 67 69 72 72 72 72 72 72 72 72 73 73 73 73 73 73 73 73 73 73 73 73 72 72 72 72 71 70 70 70 69 69 69 69 67 67 67 67 67 68 69 69 69 69 69 69 69 69 68 69 70 70
45 46 40 25 20 21 20 16 14 13 13 14 14 16 14 14 16 16 16 11 13 13 10 10 13 19 21 37 37 46 49 49 52 57 57 61 60 56 57 66 67 66 66 65 66 68 69 72 72 72 72 72 72 72 72 73 73 73 73 73 73 73 73 73 73 73 73 72 72 72 71 71 70 70 70 70 69 68 68 68 68 68 68 67 68 68 69 69 69 70 69 69 69 69 69 70 71
34 28 23 21 20 20 18 15 15 14 13 13 13 14 15 17 16 16 15 12 13 11 12 12 10 12 27 36 36 45 47 51 51 54 58 58 58 56 58 66 67 65 65 66 67 69 69 72 72 72 72 72 72 72 72 73 73 73 73 73 73 73 73 73 73 73 73 72 72 71 71 70 70 69 69 69 69 68 67 67 67 68 68 68 68 68 69 69 69 70 69 68 69 69 70 70 71
30 22 20 19 19 18 17 15 12 12 13 13 13 15 16 18 18 18 13 10 10 11 11 12 13 13 37 40 41 41 46 54 53 55 59 58 57 56 59 63 65 65 65 67 68 68 69 72 72 72 72 72 72 72 73 73 73 73 73 73 73 73 73 73 73 73 72 72 72 71 70 70 70 70 70 70 69 69 68 68 68 68 68 68 68 68 69 70 70 69 69 68 69 70 70 69 70
30 21 20 18 17 17 15 14 12 12 12 14 14 14 18 20 21 20 12 11 9 11 12 13 12 12 40 45 47 46 46 53 57 58 58 58 58 58 60 62 64 64 65 68 69 68 72 72 72 72 72 72 73 73 73 73 73 73 73 73 73 73 73 73 73 73 72 72 72 71 71 70 71 71 70 69 69 68 68 68 68 67 67 67 67 68 69 70 69 69 68 69 69 69 69 69 69
21 19 20 17 17 16 15 13 13 12 11 12 12 18 36 19 18 17 11 11 10 11 10 11 8 10 39 38 51 50 51 54 56 60 58 58 58 59 60 62 62 63 65 68 69 69 70 72 72 72 72 73 72 73 73 73 73 73 73 73 73 73 73 73 73 72 72 72 72 71 71 71 71 70 70 69 69 68 68 68 68 68 68 68 68 69 69 69 69 69 68 69 69 69 70 69 69
20 19 18 17 15 14 13 12 12 12 11 11 12 13 13 12 14 13 12 12 10 10 11 9 10 10 10 49 53 54 54 55 56 56 59 59 59 60 66 65 62 64 69 68 68 68 70 72 72 72 72 73 73 73 73 73 73 73 73 73 73 73 73 73 72 72 72 72 72 72 71 71 71 70 69 69 68 68 67 67 68 67 68 68 68 69 69 69 69 70 70 70 71 70 70 69 70
19 18 18 16 16 14 13 12 12 12 11 11 11 12 13 11 13 14 15 13 13 10 10 8 9 10 10 56 57 56 55 56 56 57 59 60 62 64 61 63 63 69 68 68 68 68 70 70 73 72 73 73 73 73 73 73 73 73 73 73 73 73 73 73 72 72 72 72 72 71 71 70 70 69 69 68 68 68 67 68 67 67 68 67 68 69 69 69 70 70 70 68 68 70 69 70 69
17 17 16 15 14 14 12 12 11 11 11 12 10 12 13 14 14 14 15 13 13 9 11 11 10 10 21 54 55 56 58 58 58 59 60 62 62 63 60 60 63 69 69 69 68 68 68 68 69 72 73 73 73 73 73 73 73 73 73 73 73 73 73 73 72 72 72 72 72 71 70 70 69 69 68 68 67 67 67 67 67 67 68 68 68 68 69 69 69 69 68 69 68 68 70 69 70
17 16 16 15 14 13 12 11 11 13 11 10 11 11 12 12 11 11 12 12 11 10 11 12 9 10 11 39 58 60 59 59 61 61 63 62 63 61 61 60 63 67 66 70 68 67 67 67 68 69 71 73 73 73 73 73 73 73 73 73 73 73 73 72 72 72 72 72 71 70 70 69 68 68 68 67 67 66 66 66 67 68 68 68 68 69 69 69 69 69 69 69 69 68 66 69 70
18 17 16 14 14 13 12 11 10 11 10 11 11 11 12 10 11 11 12 11 12 11 9 10 9 11 24 54 58 60 59 60 63 65 63 62 62 61 60 62 66 65 67 67 66 66 66 66 66 69 70 71 72 73 73 73 73 73 73 73 73 73 72 72 72 72 71 71 70 69 69 68 68 67 67 67 66 65 66 66 67 67 67 68 68 69 69 69 69 69 68 69 68 68 69 67 67
17 17 16 14 13 13 12 11 10 9 9 11 11 12 12 15 12 11 12 11 10 12 10 8 8 11 29 20 57 58 59 61 62 63 63 63 63 62 63 63 65 66 65 64 65 65 65 65 64 68 69 69 71 72 72 73 73 73 73 73 73 72 72 72 71 71 70 70 69 69 68 68 67 66 65 66 65 66 66 67 67 67 67 68 68 69 69 69 68 69 69 68 69 68 68 68 68
16 15 15 15 12 12 12 11 12 10 9 10 11 12 11 12 12 11 12 12 10 11 10 9 10 10 22 11 55 58 60 61 62 64 64 64 63 64 63 63 64 65 65 64 64 64 65 64 66 66 67 69 70 71 71 72 73 73 73 73 72 72 72 71 71 70 70 69 69 69 68 68 67 66 66 65 66 66 66 67 67 67 68 68 68 69 69 68 68 68 69 68 68 69 68 68 68
15 15 14 14 12 11 12 11 11 9 10 11 11 11 10 11 13 12 14 12 8 9 10 8 13 11 13 52 60 60 60 63 65 64 65 64 64 64 64 64 64 63 63 64 64 64 65 64 65 65 66 67 68 70 71 72 72 73 72 72 72 72 71 71 70 70 69 69 68 68 68 67 67 66 67 65 66 66 67 67 67 68 68 69 68 68 69 68 68 68 68 68 68 67 68 70 70
16 14 13 12 12 11 11 11 11 12 10 10 11 10 10 9 11 12 13 11 8 11 10 10 15 16 31 54 59 60 61 62 64 63 63 64 65 63 63 63 62 61 61 63 63 63 64 65 65 64 64 66 67 70 71 72 72 72 71 71 71 71 71 71 70 69 69 67 67 67 67 67 66 66 65 67 65 66 66 67 67 68 68 68 69 69 68 70 69 69 68 68 67 69 70 68 67
14 14 14 12 12 12 12 11 11 11 10 11 10 10 10 9 11 11 10 10 13 13 9 8 14 15 37 53 59 60 61 64 65 66 64 63 63 63 63 63 62 61 61 62 63 63 64 64 64 63 65 66 68 69 70 71 71 71 70 70 70 71 70 70 69 68 66 63 64 65 68 69 66 67 68 66 64 66 66 68 68 69 68 68 69 69 69 68 69 69 68 68 69 69 69 68 65
12 14 12 11 11 12 12 12 11 10 10 11 10 10 9 10 10 11 9 11 13 9 7 9 9 12 16 50 57 59 61 62 65 66 64 63 62 63 63 63 62 62 61 61 62 64 63 63 65 65 64 66 68 68 70 70 71 70 70 70 70 70 70 69 68 67 66 63 61 68 69 67 68 67 64 65 67 65 68 68 68 68 68 69 69 69 68 70 68 68 69 69 69 68 66 65 63
10 11 10 9 11 13 11 10 11 10 11 11 10 9 10 10 9 10 10 9 11 12 8 9 8 7 10 51 52 58 61 61 61 64 65 62 64 63 63 63 62 60 61 62 63 63 64 64 66 65 66 66 66 68 69 70 70 69 69 69 69 68 68 68 68 67 67 63 63 68 66 69 68 67 69 69 66 65 67 65 67 67 67 67 68 68 65 59 64 59 60 65 66 65 61 61 61
8 8 9 10 12 13 10 10 10 9 11 10 9 7 10 10 9 9 10 8 11 12 11 8 18 40 7 39 57 60 60 62 61 62 64 64 65 64 65 64 64 61 62 62 61 61 66 64 65 66 66 66 67 67 68 70 70 68 68 69 69 69 68 69 67 67 67 67 66 65 68 68 66 61 64 65 65 64 62 62 65 64 64 64 65 63 62 61 60 58 60 61 64 63 65 67 68
8 8 9 11 12 11 9 11 11 10 10 9 7 11 11 9 9 8 9 7 8 12 12 8 7 13 27 51 57 60 62 63 64 63 64 63 65 65 66 63 62 59 62 61 62 62 66 66 66 66 66 66 67 65 67 69 69 68 69 69 68 68 68 67 66 68 67 68 67 67 68 66 68 63 65 66 66 60 58 60 60 61 62 61 63 60 61 70 69 68 68 68 68 68 66 59 61
7 7 8 7 7 9 9 11 10 10 10 8 8 11 7 6 7 8 7 9 9 11 11 10 7 47 50 51 55 59 61 64 65 65 65 66 67 66 66 65 62 62 62 63 61 63 66 65 65 66 66 66 66 65 67 67 69 68 69 68 68 67 67 66 66 68 67 67 69 69 68 67 67 67 68 68 67 62 58 57 57 58 60 60 62 62 71 71 71 69 68 67 66 64 58 63 61
6 6 7 6 6 10 12 13 10 10 7 6 8 10 9 8 7 8 5 6 7 9 10 10 8 45 39 44 45 56 64 64 65 67 68 66 68 68 68 64 64 64 63 63 63 64 67 68 68 66 65 65 64 65 66 67 67 68 69 68 68 69 67 67 67 68 66 66 68 68 67 68 68 68 67 65 67 66 64 61 59 60 64 69 71 72 72 71 68 68 68 65 63 64 63 67 59
6 5 6 5 4 7 11 12 11 9 7 7 7 7 7 8 8 7 8 8 8 8 5 9 9 8 7 40 51 60 64 66 66 67 67 67 68 67 67 65 65 65 65 64 65 66 67 69 68 67 66 64 64 65 66 68 68 70 69 68 68 67 67 68 69 66 67 65 67 68 67 68 71 69 68 65 65 71 72 70 72 69 70 72 72 71 72 72 70 69 67 64 61 65 63 65 63
6 5 4 4 4 7 9 9 10 9 7 7 7 5 2 -0 1 5 8 7 7 10 7 3 9 15 9 11 58 61 64 66 67 67 67 67 67 66 66 67 65 66 66 67 65 66 67 68 67 69 67 67 65 63 66 68 69 69 68 68 67 67 69 69 67 67 66 66 66 69 67 70 71 71 71 70 70 70 70 71 71 70 71 72 74 73 72 71 71 68 66 65 65 63 65 64 60
5 4 2 3 8 7 6 8 8 7 7 8 7 6 5 6 7 6 7 2 1 9 8 7 7 15 21 47 56 62 65 67 65 67 66 66 64 65 65 65 66 67 67 67 65 66 67 68 68 69 68 69 68 63 67 67 68 68 68 68 68 67 69 68 67 68 67 67 67 68 71 71 71 72 71 71 70 70 71 70 72 69 72 72 73 73 72 71 70 67 66 72 70 69 66 65 61
9 5 2 3 5 5 5 7 7 8 8 6 6 4 4 4 6 7 8 -2 10 10 9 10 3 10 8 27 56 63 64 65 65 65 66 65 65 66 66 67 67 66 66 68 67 67 68 68 68 68 67 70 70 66 66 67 68 69 68 68 67 68 68 67 66 67 67 70 70 69 71 70 71 71 72 72 69 68 71 73 71 71 72 71 73 71 70 70 69 67 68 69 69 67 68 65 57
14 10 4 2 1 2 7 8 6 6 2 2 5 5 5 3 4 7 3 6 11 9 7 8 21 23 13 30 36 62 65 65 65 65 65 65 66 67 67 68 67 66 65 67 68 67 68 68 68 68 67 67 69 69 67 66 68 68 68 68 68 68 67 67 67 68 68 69 70 70 70 68 70 72 71 71 72 69 71 71 70 72 73 72 73 74 71 71 71 68 65 68 68 65 62 64 62
14 12 7 3 1 1 6 8 5 6 3 7 10 5 0 1 3 8 11 10 8 9 9 15 29 28 33 37 41 62 66 65 65 66 67 67 66 67 67 68 68 67 66 67 67 67 68 68 68 67 68 67 69 68 67 67 68 67 66 66 67 68 67 67 68 68 69 68 69 69 70 71 69 71 71 70 71 71 71 70 70 71 72 70 71 71 72 72 69 69 66 64 65 67 64 61 61
14 12 10 5 1 2 0 3 3 5 5 2 1 1 1 5 8 9 13 23 20 10 7 15 25 32 41 39 39 61 63 65 67 67 68 67 68 66 67 67 67 67 67 68 68 67 67 68 68 67 68 68 69 69 68 68 67 68 67 66 68 69 66 65 67 68 67 68 70 69 71 72 71 72 71 72 72 72 70 69 70 72 70 70 72 73 72 70 70 71 67 65 65 61 59 56 62
16 12 11 7 4 2 -2 6 5 6 7 -1 6 5 6 6 6 6 29 30 28 15 15 22 29 42 43 38 37 44 61 63 65 65 67 66 67 67 67 67 67 67 68 68 68 67 67 67 67 67 67 68 68 69 68 69 69 67 68 68 68 69 68 68 66 68 67 67 69 68 70 72 72 71 69 69 70 66 68 70 70 70 70 72 72 71 71 70 72 67 69 68 65 64 60 58 61
16 12 11 8 4 1 1 5 6 8 6 -3 10 8 5 2 3 5 19 22 32 15 17 25 32 29 40 38 35 42 59 62 63 64 67 66 66 67 67 67 67 67 68 68 68 67 67 67 67 68 68 69 69 69 68 69 68 68 67 68 69 68 68 68 67 67 67 69 70 69 70 71 69 67 67 67 69 68 69 69 69 68 70 72 72 71 70 70 70 66 67 66 65 62 60 59 56
15 12 12 8 6 3 3 2 3 6 -7 6 11 9 5 1 2 -0 2 14 24 17 21 19 25 28 37 39 39 43 57 61 62 63 66 65 66 67 66 67 66 67 67 67 67 67 66 66 67 67 67 68 68 69 69 69 69 69 69 69 69 69 68 70 68 68 68 68 70 69 68 68 68 68 68 68 68 68 68 68 67 68 69 69 69 70 70 68 71 67 66 66 67 60 60 62 59
16 13 10 8 8 5 3 3 1 -2 3 10 10 7 1 0 3 2 5 4 6 10 18 29 30 29 37 42 41 43 45 60 63 64 65 64 65 67 66 66 67 68 67 67 66 67 66 66 66 66 67 68 68 68 68 67 67 67 66 67 67 67 67 67 68 68 68 67 68 68 68 68 69 69 68 68 67 67 68 68 67 67 69 69 69 68 69 66 67 67 65 63 66 60 58 58 59
17 16 11 7 6 4 2 5 2 -1 5 9 10 7 0 2 5 5 3 7 7 9 16 30 31 37 38 41 44 43 47 59 63 64 64 64 66 67 67 66 67 68 67 67 66 66 65 64 65 65 67 68 67 67 66 66 66 66 66 66 66 68 65 67 69 69 68 68 67 68 68 69 68 69 69 67 67 68 68 68 68 69 69 67 67 67 65 66 68 66 67 65 65 60 57 58 59
16 15 10 5 5 3 5 6 3 -4 7 7 9 5 3 3 5 5 6 7 4 8 17 28 30 32 36 38 43 43 52 58 63 63 64 64 65 67 66 66 67 68 67 66 65 65 65 66 66 65 67 67 67 67 67 67 67 65 66 65 66 65 65 66 68 69 69 68 68 68 69 68 67 68 68 66 67 66 66 68 69 69 68 66 68 66 67 65 64 66 65 65 58 56 57 58 60
15 16 11 7 7 7 5 2 -1 -4 -3 3 5 5 5 5 4 4 8 6 8 10 15 25 26 27 35 39 40 45 52 58 61 62 63 62 66 66 66 66 67 67 67 66 66 66 66 66 66 65 66 66 67 68 67 66 67 68 67 66 66 65 67 68 69 68 68 68 68 68 68 68 68 68 68 68 67 67 68 68 68 68 68 67 68 66 66 62 65 63 65 65 60 57 56 57 59
15 15 15 7 8 8 6 3 -2 -3 -3 -1 6 6 8 10 10 9 8 6 12 23 36 34 27 26 31 36 38 44 51 60 60 61 62 62 64 65 66 67 67 67 66 66 65 65 65 65 65 66 66 67 67 67 67 68 68 69 69 67 67 66 67 67 68 69 69 68 68 68 68 68 68 67 66 66 67 68 68 68 68 69 67 67 67 65 63 63 62 63 62 64 64 55 53 55 56
15 15 14 12 6 5 5 2 -1 -5 -4 -6 4 10 9 9 8 4 8 13 18 26 38 34 34 35 31 36 38 46 50 60 60 61 61 63 64 64 65 66 68 67 66 66 66 65 65 65 65 65 66 66 66 67 67 68 68 68 68 67 66 66 66 66 67 66 67 69 67 67 67 67 67 67 67 67 67 68 67 68 67 66 65 66 64 62 61 60 61 61 62 62 61 58 53 55 54
12 13 13 12 7 5 6 2 -3 -2 0 -5 4 8 9 11 8 4 5 9 12 16 26 23 27 35 36 34 36 45 56 60 60 62 61 63 64 64 65 66 67 67 66 66 66 65 65 65 65 65 65 66 66 67 68 68 67 67 67 66 63 64 64 66 65 65 65 66 66 67 67 66 66 66 67 66 65 65 67 67 67 64 66 66 63 62 62 61 58 57 59 60 61 61 54 53 53
13 12 14 14 12 7 5 2 -2 -2 -0 -4 4 8 10 9 7 8 8 8 10 14 24 23 30 34 35 36 38 44 60 62 63 62 63 62 63 64 65 66 67 67 67 67 67 67 67 65 66 66 66 66 66 67 68 67 67 67 67 65 65 64 65 65 67 67 67 66 66 65 66 66 65 66 65 65 64 64 66 66 65 63 62 61 61 61 60 59 57 57 58 58 58 59 61 55 54
12 15 15 14 13 8 3 3 1 -4 3 -1 4 7 8 4 5 8 6 9 9 10 11 23 30 35 34 33 36 45 57 57 61 61 61 63 63 64 64 66 67 67 67 67 68 69 67 67 67 66 66 65 66 67 67 68 67 67 66 66 66 65 65 65 66 66 66 65 65 65 65 65 65 64 65 63 63 63 64 63 62 62 60 60 60 59 59 59 58 58 59 59 57 57 57 55 51
12 13 11 11 12 11 6 2 2 -2 -0 2 5 7 8 6 6 6 6 6 9 9 10 18 25 32 35 35 37 50 55 57 60 60 62 61 63 64 65 66 67 67 67 68 68 68 68 67 67 68 67 66 66 67 67 68 68 67 66 64 65 65 66 66 65 65 65 64 64 64 64 64 65 64 63 63 62 61 62 62 60 58 59 58 56 57 56 55 57 57 57 57 57 56 57 56 55
14 16 17 15 12 3 6 5 0 -0 4 9 5 5 6 3 4 5 8 6 9 11 11 15 24 31 32 34 40 47 54 56 59 60 60 62 62 64 66 67 67 67 67 67 68 68 67 67 67 68 67 67 67 68 68 68 67 67 66 64 64 64 65 64 63 63 63 64 63 63 63 63 63 64 64 62 61 59 59 59 57 57 57 55 54 54 55 56 56 56 56 56 55 55 55 54 54
11 12 10 6 4 11 13 15 6 5 9 7 2 1 2 3 2 5 11 12 10 12 13 16 23 30 32 36 41 42 50 51 51 59 61 62 63 64 66 66 66 66 66 66 66 66 66 66 67 66 67 67 68 68 67 67 66 66 65 64 64 63 64 63 63 62 62 63 62 62 62 62 62 62 63 63 63 59 59 58 57 56 58 58 55 52 54 54 56 56 55 55 54 54 54 53 53
13 10 9 8 11 13 17 13 5 6 6 3 1 1 2 3 2 1 13 12 9 12 13 15 21 29 32 38 40 41 52 52 53 58 60 62 62 65 65 65 66 65 65 66 66 65 66 66 66 66 66 67 67 67 66 65 65 65 67 66 64 64 64 63 62 62 63 62 62 62 62 62 62 62 64 63 60 59 59 58 58 57 56 56 55 54 54 54 55 55 55 55 55 55 55 54 54
11 12 11 12 13 13 10 7 10 7 3 2 -0 0 -0 1 7 5 3 9 10 11 8 12 19 29 36 37 41 41 51 49 57 59 61 62 61 63 64 65 65 64 64 65 65 65 65 65 65 65 65 66 66 66 65 65 65 65 66 66 65 65 65 64 63 62 62 62 62 61 61 60 60 60 60 59 59 59 58 58 57 57 56 55 54 53 54 54 54 54 53 53 53 53 53 53 52
9 10 12 11 10 9 13 7 8 8 2 -1 -0 1 -0 4 3 5 5 11 11 12 19 17 22 35 38 38 41 42 49 48 56 59 60 60 61 63 63 64 64 64 64 64 64 64 65 65 65 64 64 66 66 66 65 64 65 66 66 66 65 65 64 64 63 62 62 61 62 62 61 61 61 60 59 58 57 56 57 56 56 55 53 52 53 54 53 52 53 51 52 53 53 53 53 52 52
11 12 10 12 10 9 13 4 7 6 1 -0 -1 -0 5 1 6 7 11 10 12 11 11 23 31 35 40 37 38 42 45 49 55 57 59 60 62 63 64 64 64 64 64 64 64 63 64 64 64 64 64 65 66 65 65 64 65 66 65 66 65 65 64 63 62 62 62 62 62 61 61 62 62 61 59 58 57 57 56 55 54 54 54 54 54 54 54 53 53 52 52 53 53 53 52 52 51
12 12 11 10 11 11 7 9 6 7 6 7 6 10 6 8 11 13 11 8 8 15 14 23 33 37 37 38 41 42 46 50 53 58 59 62 63 63 64 64 64 64 64 64 63 64 64 64 64 64 64 64 65 64 64 64 66 65 65 66 66 65 64 64 63 63 63 62 61 60 60 60 60 59 58 58 58 56 55 54 53 52 52 53 53 53 52 52 53 52 51 51 50 51 51 50 50
12 11 11 10 10 7 15 19 18 23 13 9 11 9 8 8 13 10 10 9 6 11 11 17 30 35 39 41 43 44 46 53 55 58 59 61 63 64 64 64 64 64 64 64 64 64 65 65 64 63 64 64 64 64 64 65 65 65 65 66 66 64 64 64 64 63 63 62 61 61 61 60 60 58 58 58 56 55 55 54 52 52 52 53 52 52 51 51 51 51 51 52 51 51 50 49 50
13 12 11 12 11 9 15 9 14 13 9 13 7 3 3 1 10 19 10 10 19 20 21 22 32 35 38 43 45 45 49 53 55 57 58 61 62 64 64 64 63 64 64 64 64 65 66 65 63 62 63 64 64 64 65 65 65 65 65 65 65 64 64 63 63 62 62 61 61 60 59 58 57 57 56 56 55 54 54 54 53 53 53 53 52 50 49 51 53 52 50 50 51 52 51 50 50
13 10 11 9 16 11 11 16 14 11 12 8 4 1 2 0 12 16 14 12 26 28 25 24 27 33 37 42 42 48 51 52 52 55 59 60 60 63 64 64 63 64 64 64 64 65 65 63 63 63 63 64 64 65 65 65 65 65 65 63 63 63 62 62 62 61 60 60 59 60 58 57 56 56 55 55 54 53 53 53 52 51 52 51 51 51 51 51 51 51 51 50 50 50 49 50 51
12 11 9 10 12 14 11 16 11 10 9 13 4 2 8 6 12 16 14 15 24 25 27 26 24 29 38 41 43 47 53 56 57 59 60 60 62 63 63 63 63 63 63 64 64 64 64 63 63 63 64 64 64 65 65 65 65 65 64 63 63 62 61 61 61 60 59 58 58 58 57 56 56 56 55 54 53 52 52 51 50 50 50 50 50 51 50 50 51 50 51 50 49 48 46 46 46
10 7 9 8 18 10 9 14 6 8 12 9 10 10 13 16 8 14 13 17 26 30 32 33 31 33 38 40 45 50 54 57 58 59 59 59 62 64 63 63 63 63 63 64 65 63 63 63 63 63 64 64 65 65 65 65 65 64 64 63 63 62 61 61 60 60 59 58 57 57 56 56 55 55 55 54 52 51 50 50 48 49 48 49 49 50 50 50 50 49 49 48 47 46 44 45 45
9 8 9 7 8 12 9 12 6 7 10 14 11 12 16 13 12 16 18 30 29 29 31 32 32 34 38 43 48 52 57 58 59 59 59 59 61 64 63 62 63 63 63 64 63 63 63 62 63 62 63 63 64 65 65 65 64 64 63 63 62 61 61 60 59 59 58 57 56 56 56 55 55 55 54 52 51 51 51 49 47 47 48 47 48 47 49 50 47 48 48 49 47 45 44 45 46